Time,TemperatureF,DewpointF,PressureIn,WindDirection,WindDirectionDegrees,WindSpeedMPH,WindSpeedGustMPH,Humidity,HourlyPrecipIn,Conditions,Clouds,dailyrainin,SoftwareType,DateUTC
2013-11-04 00:01:00,26.2,13.5,29.88,South,170,0.0,0.0,58,0.00,,---,0.00,VWS V14.01,2013-11-04 07:01:00,
2013-11-04 00:06:00,26.1,13.3,29.88,South,170,0.0,0.0,58,0.00,,---,0.00,VWS V14.01,2013-11-04 07:06:00,
2013-11-04 00:11:00,26.1,13.7,29.88,SW,232,0.0,0.0,59,0.00,,---,0.00,VWS V14.01,2013-11-04 07:11:00,
2013-11-04 00:16:00,26.1,14.1,29.88,SW,232,0.0,0.0,60,0.00,,---,0.00,VWS V14.01,2013-11-04 07:16:00,
2013-11-04 00:21:00,26.2,14.3,29.88,SW,232,0.0,0.0,60,0.00,,---,0.00,VWS V14.01,2013-11-04 07:21:00,
2013-11-04 00:26:00,26.2,13.9,29.88,SW,232,0.0,0.0,59,0.00,,---,0.00,VWS V14.01,2013-11-04 07:26:00,
2013-11-04 00:31:00,26.4,14.4,29.88,SW,232,0.0,0.0,60,0.00,,---,0.00,VWS V14.01,2013-11-04 07:31:00,
2013-11-04 00:36:00,26.4,14.4,29.88,SW,232,0.0,0.0,60,0.00,,---,0.00,VWS V14.01,2013-11-04 07:36:00,
2013-11-04 00:41:00,26.6,14.6,29.88,SSE,157,4.0,5.8,60,0.00,,---,0.00,VWS V14.01,2013-11-04 07:41:00,
2013-11-04 00:46:00,27.7,16.0,29.88,SE,146,0.0,0.0,61,0.00,,---,0.00,VWS V14.01,2013-11-04 07:46:00,
2013-11-04 00:51:00,27.7,15.6,29.88,SSW,196,3.1,4.0,60,0.00,,---,0.00,VWS V14.01,2013-11-04 07:51:00,
2013-11-04 00:56:00,28.0,16.3,29.88,SSE,162,3.6,4.0,61,0.00,,---,0.00,VWS V14.01,2013-11-04 07:56:00,
2013-11-04 01:01:00,28.4,16.7,29.88,SE,125,0.0,2.7,61,0.00,,---,0.00,VWS V14.01,2013-11-04 08:01:00,
2013-11-04 01:06:00,28.0,16.0,29.88,SE,124,0.0,2.7,60,0.00,,---,0.00,VWS V14.01,2013-11-04 08:06:00,
2013-11-04 01:11:00,27.5,15.1,29.88,SE,124,0.0,2.7,59,0.00,,---,0.00,VWS V14.01,2013-11-04 08:11:00,
2013-11-04 01:16:00,27.0,14.6,29.88,SE,125,0.0,0.0,59,0.00,,---,0.00,VWS V14.01,2013-11-04 08:16:00,
2013-11-04 01:21:00,26.8,14.4,29.88,SW,224,2.7,4.5,59,0.00,,---,0.00,VWS V14.01,2013-11-04 08:21:00,
2013-11-04 01:26:00,26.1,13.7,29.88,WSW,237,2.7,4.5,59,0.00,,---,0.00,VWS V14.01,2013-11-04 08:26:00,
2013-11-04 01:31:00,25.5,13.2,29.88,South,171,3.6,6.3,59,0.00,,---,0.00,VWS V14.01,2013-11-04 08:31:00,
2013-11-04 01:36:00,27.0,15.3,29.88,South,179,4.0,6.7,61,0.00,,---,0.00,VWS V14.01,2013-11-04 08:36:00,
2013-11-04 01:41:00,27.7,16.0,29.88,West,268,0.0,6.7,61,0.00,,---,0.00,VWS V14.01,2013-11-04 08:41:00,
2013-11-04 01:46:00,26.8,14.4,29.88,West,279,0.0,0.0,59,0.00,,---,0.00,VWS V14.01,2013-11-04 08:46:00,
2013-11-04 01:51:00,26.1,13.3,29.88,West,279,0.0,0.0,58,0.00,,---,0.00,VWS V14.01,2013-11-04 08:51:00,
2013-11-04 01:56:00,25.7,13.4,29.88,South,190,2.7,4.0,59,0.00,,---,0.00,VWS V14.01,2013-11-04 08:56:00,
2013-11-04 02:01:00,26.2,14.3,29.88,SSW,194,4.0,4.5,60,0.00,,---,0.00,VWS V14.01,2013-11-04 09:01:00,
2013-11-04 02:06:00,27.0,14.9,29.88,South,174,6.3,6.3,60,0.00,,---,0.00,VWS V14.01,2013-11-04 09:06:00,
2013-11-04 02:11:00,27.7,15.6,29.88,SSW,210,4.0,6.3,60,0.00,,---,0.00,VWS V14.01,2013-11-04 09:11:00,
2013-11-04 02:16:00,27.7,15.2,29.88,South,182,4.9,4.9,59,0.00,,---,0.00,VWS V14.01,2013-11-04 09:16:00,
2013-11-04 02:21:00,27.7,15.2,29.88,SSW,194,4.0,8.3,59,0.00,,---,0.00,VWS V14.01,2013-11-04 09:21:00,
2013-11-04 02:26:00,27.9,15.0,29.88,WSW,245,4.0,8.3,58,0.00,,---,0.00,VWS V14.01,2013-11-04 09:26:00,
2013-11-04 02:31:00,27.9,15.0,29.88,South,184,3.1,5.8,58,0.00,,---,0.00,VWS V14.01,2013-11-04 09:31:00,
2013-11-04 02:36:00,28.0,14.8,29.88,SW,217,4.0,5.8,57,0.00,,---,0.00,VWS V14.01,2013-11-04 09:36:00,
2013-11-04 02:41:00,27.7,14.4,29.88,SW,225,3.6,5.8,57,0.00,,---,0.00,VWS V14.01,2013-11-04 09:41:00,
2013-11-04 02:46:00,27.5,13.9,29.88,SSW,203,4.0,4.5,56,0.00,,---,0.00,VWS V14.01,2013-11-04 09:46:00,
2013-11-04 02:51:00,27.9,14.2,29.88,SSE,167,3.6,5.8,56,0.00,,---,0.00,VWS V14.01,2013-11-04 09:51:00,
2013-11-04 02:56:00,28.2,14.1,29.88,SSW,198,3.1,5.8,55,0.00,,---,0.00,VWS V14.01,2013-11-04 09:56:00,
2013-11-04 03:01:00,28.6,14.5,29.88,SE,145,2.7,2.7,55,0.00,,---,0.00,VWS V14.01,2013-11-04 10:01:00,
2013-11-04 03:06:00,28.2,14.1,29.88,South,179,0.0,4.0,55,0.00,,---,0.00,VWS V14.01,2013-11-04 10:06:00,
2013-11-04 03:11:00,27.7,12.8,29.88,SW,230,0.0,4.0,53,0.00,,---,0.00,VWS V14.01,2013-11-04 10:11:00,
2013-11-04 03:16:00,27.1,12.3,29.88,SW,230,0.0,0.0,53,0.00,,---,0.00,VWS V14.01,2013-11-04 10:16:00,
2013-11-04 03:21:00,27.0,12.1,29.88,SW,230,0.0,0.0,53,0.00,,---,0.00,VWS V14.01,2013-11-04 10:21:00,
2013-11-04 03:26:00,27.3,12.5,29.88,SSE,168,0.0,5.4,53,0.00,,---,0.00,VWS V14.01,2013-11-04 10:26:00,
2013-11-04 03:31:00,27.5,12.6,29.88,SSE,168,0.0,0.0,53,0.00,,---,0.00,VWS V14.01,2013-11-04 10:31:00,
2013-11-04 03:36:00,27.0,11.7,29.88,SSE,168,0.0,0.0,52,0.00,,---,0.00,VWS V14.01,2013-11-04 10:36:00,
2013-11-04 03:41:00,26.1,11.3,29.88,SSE,168,0.0,0.0,53,0.00,,---,0.00,VWS V14.01,2013-11-04 10:41:00,
2013-11-04 03:46:00,25.3,10.2,29.88,SSE,168,0.0,0.0,52,0.00,,---,0.00,VWS V14.01,2013-11-04 10:46:00,
2013-11-04 03:51:00,25.2,10.4,29.88,SSE,168,0.0,0.0,53,0.00,,---,0.00,VWS V14.01,2013-11-04 10:51:00,
2013-11-04 03:56:00,25.3,11.0,29.88,West,259,3.1,3.1,54,0.00,,---,0.00,VWS V14.01,2013-11-04 10:56:00,
2013-11-04 04:01:00,24.8,10.5,29.88,West,259,0.0,0.0,54,0.00,,---,0.00,VWS V14.01,2013-11-04 11:01:00,
2013-11-04 04:06:00,24.4,9.8,29.88,West,259,0.0,0.0,53,0.00,,---,0.00,VWS V14.01,2013-11-04 11:06:00,
2013-11-04 04:11:00,24.3,10.0,29.85,West,259,0.0,0.0,54,0.00,,---,0.00,VWS V14.01,2013-11-04 11:11:00,
2013-11-04 04:14:00,24.1,9.9,29.85,West,259,0.0,0.0,54,0.00,,---,0.00,VWS V14.01,2013-11-04 11:14:00,
2013-11-04 04:19:00,23.5,8.9,29.85,West,259,0.0,0.0,53,0.00,,---,0.00,VWS V14.01,2013-11-04 11:19:00,
2013-11-04 04:22:00,23.4,8.8,29.85,West,259,0.0,0.0,53,0.00,,---,0.00,VWS V14.01,2013-11-04 11:22:00,
2013-11-04 04:27:00,22.8,8.7,29.88,West,259,0.0,0.0,54,0.00,,---,0.00,VWS V14.01,2013-11-04 11:27:00,
2013-11-04 04:32:00,22.6,8.5,29.88,West,259,0.0,0.0,54,0.00,,---,0.00,VWS V14.01,2013-11-04 11:32:00,
2013-11-04 04:37:00,23.0,9.7,29.88,West,259,0.0,0.0,56,0.00,,---,0.00,VWS V14.01,2013-11-04 11:37:00,
2013-11-04 04:42:00,23.0,9.2,29.88,SSW,195,0.0,0.0,55,0.00,,---,0.00,VWS V14.01,2013-11-04 11:42:00,
2013-11-04 04:47:00,22.8,9.1,29.88,WSW,246,0.0,0.0,55,0.00,,---,0.00,VWS V14.01,2013-11-04 11:47:00,
2013-11-04 04:52:00,22.5,8.8,29.88,WSW,246,0.0,0.0,55,0.00,,---,0.00,VWS V14.01,2013-11-04 11:52:00,
2013-11-04 04:57:00,22.5,8.8,29.88,WSW,256,0.0,0.0,55,0.00,,---,0.00,VWS V14.01,2013-11-04 11:57:00,
2013-11-04 05:02:00,22.1,8.4,29.88,WSW,258,0.0,0.0,55,0.00,,---,0.00,VWS V14.01,2013-11-04 12:02:00,
2013-11-04 05:07:00,21.7,8.1,29.88,WSW,256,0.0,0.0,55,0.00,,---,0.00,VWS V14.01,2013-11-04 12:07:00,
2013-11-04 05:12:00,21.7,8.1,29.88,West,261,2.7,5.4,55,0.00,,---,0.00,VWS V14.01,2013-11-04 12:12:00,
2013-11-04 05:17:00,21.9,8.6,29.88,SW,220,2.7,3.1,56,0.00,,---,0.00,VWS V14.01,2013-11-04 12:17:00,
2013-11-04 05:22:00,22.6,9.3,29.88,West,266,0.0,3.6,56,0.00,,---,0.00,VWS V14.01,2013-11-04 12:22:00,
2013-11-04 05:27:00,22.8,9.5,29.88,West,261,0.0,3.6,56,0.00,,---,0.00,VWS V14.01,2013-11-04 12:27:00,
2013-11-04 05:32:00,23.2,9.8,29.88,SW,230,2.7,3.6,56,0.00,,---,0.00,VWS V14.01,2013-11-04 12:32:00,
2013-11-04 05:37:00,24.4,11.4,29.88,South,185,3.6,5.4,57,0.00,,---,0.00,VWS V14.01,2013-11-04 12:37:00,
2013-11-04 05:42:00,25.5,12.4,29.88,South,175,3.1,8.1,57,0.00,,---,0.00,VWS V14.01,2013-11-04 12:42:00,
2013-11-04 05:47:00,26.1,12.5,29.88,SSW,193,5.8,5.8,56,0.00,,---,0.00,VWS V14.01,2013-11-04 12:47:00,
2013-11-04 05:52:00,26.2,12.7,29.88,SSW,201,3.6,5.8,56,0.00,,---,0.00,VWS V14.01,2013-11-04 12:52:00,
2013-11-04 05:57:00,26.2,12.3,29.88,WSW,250,3.1,5.8,55,0.00,,---,0.00,VWS V14.01,2013-11-04 12:57:00,
2013-11-04 06:02:00,25.3,11.4,29.88,SSE,158,2.7,5.8,55,0.00,,---,0.00,VWS V14.01,2013-11-04 13:02:00,
2013-11-04 06:07:00,25.5,11.6,29.88,SSE,159,0.0,5.8,55,0.00,,---,0.00,VWS V14.01,2013-11-04 13:07:00,
2013-11-04 06:12:00,25.3,11.4,29.88,SSE,159,0.0,5.8,55,0.00,,---,0.00,VWS V14.01,2013-11-04 13:12:00,
2013-11-04 06:17:00,24.8,10.9,29.88,West,262,0.0,0.0,55,0.00,,---,0.00,VWS V14.01,2013-11-04 13:17:00,
2013-11-04 06:22:00,23.9,9.7,29.88,West,264,0.0,3.1,54,0.00,,---,0.00,VWS V14.01,2013-11-04 13:22:00,
2013-11-04 06:27:00,23.2,9.0,29.88,West,275,0.0,3.1,54,0.00,,---,0.00,VWS V14.01,2013-11-04 13:27:00,
2013-11-04 06:32:00,23.0,9.2,29.88,SW,232,2.7,3.1,55,0.00,,---,0.00,VWS V14.01,2013-11-04 13:32:00,
2013-11-04 06:37:00,23.0,9.2,29.88,SSW,206,0.0,3.1,55,0.00,,---,0.00,VWS V14.01,2013-11-04 13:37:00,
2013-11-04 06:42:00,22.6,8.9,29.88,SSW,206,0.0,3.1,55,0.00,,---,0.00,VWS V14.01,2013-11-04 13:42:00,
2013-11-04 06:47:00,22.5,8.8,29.88,SSW,206,0.0,0.0,55,0.00,,---,0.00,VWS V14.01,2013-11-04 13:47:00,
2013-11-04 06:52:00,22.3,8.6,29.88,SSW,206,0.0,0.0,55,0.00,,---,0.00,VWS V14.01,2013-11-04 13:52:00,
2013-11-04 06:57:00,22.3,8.6,29.88,SSW,211,0.0,0.0,55,0.00,,---,0.00,VWS V14.01,2013-11-04 13:57:00,
2013-11-04 07:02:00,22.3,8.6,29.88,SE,135,0.0,0.0,55,0.00,,---,0.00,VWS V14.01,2013-11-04 14:02:00,
2013-11-04 07:07:00,23.2,9.8,29.88,SE,126,4.5,5.8,56,0.00,,---,0.00,VWS V14.01,2013-11-04 14:07:00,
2013-11-04 07:12:00,23.9,10.5,29.88,SE,140,2.2,5.8,56,0.00,,---,0.00,VWS V14.01,2013-11-04 14:12:00,
2013-11-04 07:17:00,24.1,10.3,29.88,SSE,165,2.7,4.0,55,0.00,,---,0.00,VWS V14.01,2013-11-04 14:17:00,
2013-11-04 07:22:00,24.3,10.4,29.88,SSE,148,3.1,5.4,55,0.00,,---,0.00,VWS V14.01,2013-11-04 14:22:00,
2013-11-04 07:27:00,24.1,10.3,29.88,South,177,0.0,5.4,55,0.00,,---,0.00,VWS V14.01,2013-11-04 14:27:00,
2013-11-04 07:32:00,23.7,9.9,29.88,South,177,0.0,0.0,55,0.00,,---,0.00,VWS V14.01,2013-11-04 14:32:00,
2013-11-04 07:37:00,23.5,9.8,29.88,SE,140,0.0,4.9,55,0.00,,---,0.00,VWS V14.01,2013-11-04 14:37:00,
2013-11-04 07:42:00,23.5,9.8,29.88,SSW,209,0.0,4.9,55,0.00,,---,0.00,VWS V14.01,2013-11-04 14:42:00,
2013-11-04 07:47:00,23.4,9.6,29.88,WSW,239,0.0,0.0,55,0.00,,---,0.00,VWS V14.01,2013-11-04 14:47:00,
2013-11-04 07:52:00,22.8,9.1,29.88,WSW,239,0.0,0.0,55,0.00,,---,0.00,VWS V14.01,2013-11-04 14:52:00,
2013-11-04 07:57:00,22.8,9.1,29.91,WSW,239,0.0,0.0,55,0.00,,---,0.00,VWS V14.01,2013-11-04 14:57:00,
2013-11-04 08:02:00,23.7,10.3,29.91,WSW,246,0.0,0.0,56,0.00,,---,0.00,VWS V14.01,2013-11-04 15:02:00,
2013-11-04 08:07:00,25.7,12.6,29.91,SSW,206,2.7,3.1,57,0.00,,---,0.00,VWS V14.01,2013-11-04 15:07:00,
2013-11-04 08:12:00,27.7,14.0,29.91,SSW,206,0.0,3.1,56,0.00,,---,0.00,VWS V14.01,2013-11-04 15:12:00,
2013-11-04 08:17:00,29.5,15.3,29.91,South,175,0.0,3.6,55,0.00,,---,0.00,VWS V14.01,2013-11-04 15:17:00,
2013-11-04 08:22:00,30.7,15.6,29.91,SSE,162,4.0,5.8,53,0.00,,---,0.00,VWS V14.01,2013-11-04 15:22:00,
2013-11-04 08:26:00,30.7,15.2,29.91,SE,138,8.1,8.3,52,0.00,,---,0.00,VWS V14.01,2013-11-04 15:26:00,
2013-11-04 08:31:00,30.4,14.4,29.91,South,174,4.0,5.4,51,0.00,,---,0.00,VWS V14.01,2013-11-04 15:31:00,
2013-11-04 08:36:00,29.5,13.6,29.91,South,182,4.0,6.3,51,0.00,,---,0.00,VWS V14.01,2013-11-04 15:36:00,
2013-11-04 08:41:00,29.1,12.4,29.91,South,186,3.1,8.1,49,0.00,,---,0.00,VWS V14.01,2013-11-04 15:41:00,
2013-11-04 08:46:00,28.6,11.9,29.91,SSW,195,3.6,4.0,49,0.00,,---,0.00,VWS V14.01,2013-11-04 15:46:00,
2013-11-04 08:51:00,28.6,12.3,29.91,South,189,0.0,4.0,50,0.00,,---,0.00,VWS V14.01,2013-11-04 15:51:00,
2013-11-04 08:56:00,29.7,13.8,29.91,South,184,5.4,5.4,51,0.00,,---,0.00,VWS V14.01,2013-11-04 15:56:00,
2013-11-04 09:01:00,30.4,14.0,29.91,SSE,164,3.1,4.0,50,0.00,,---,0.00,VWS V14.01,2013-11-04 16:01:00,
2013-11-04 09:06:00,30.2,13.8,29.91,SSE,149,3.1,4.0,50,0.00,,---,0.00,VWS V14.01,2013-11-04 16:06:00,
2013-11-04 09:11:00,30.4,14.0,29.91,SE,127,3.1,4.9,50,0.00,,---,0.00,VWS V14.01,2013-11-04 16:11:00,
2013-11-04 09:16:00,31.8,15.3,29.91,South,177,4.0,4.0,50,0.00,,---,0.00,VWS V14.01,2013-11-04 16:16:00,
2013-11-04 09:21:00,33.1,16.5,29.91,SE,144,3.1,4.0,50,0.00,,---,0.00,VWS V14.01,2013-11-04 16:21:00,
2013-11-04 09:26:00,33.3,15.2,29.91,SE,138,4.9,5.8,47,0.00,,---,0.00,VWS V14.01,2013-11-04 16:26:00,
2013-11-04 09:31:00,33.4,15.4,29.91,SE,138,3.1,4.0,47,0.00,,---,0.00,VWS V14.01,2013-11-04 16:31:00,
2013-11-04 09:36:00,34.0,15.4,29.91,SSE,155,3.6,4.9,46,0.00,,---,0.00,VWS V14.01,2013-11-04 16:36:00,
2013-11-04 09:41:00,34.5,15.4,29.91,SE,133,2.7,5.4,45,0.00,,---,0.00,VWS V14.01,2013-11-04 16:41:00,
2013-11-04 09:46:00,35.8,16.0,29.91,SE,141,3.1,5.8,44,0.00,,---,0.00,VWS V14.01,2013-11-04 16:46:00,
2013-11-04 09:51:00,37.2,17.3,29.91,SE,126,4.0,7.6,44,0.00,,---,0.00,VWS V14.01,2013-11-04 16:51:00,
2013-11-04 09:56:00,38.1,15.9,29.91,SSE,167,5.4,7.6,40,0.00,,---,0.00,VWS V14.01,2013-11-04 16:56:00,
2013-11-04 10:01:00,37.6,15.5,29.91,ESE,114,2.7,5.8,40,0.00,,---,0.00,VWS V14.01,2013-11-04 17:01:00,
2013-11-04 10:06:00,36.9,14.8,29.91,SSE,161,4.0,6.3,40,0.00,,---,0.00,VWS V14.01,2013-11-04 17:06:00,
2013-11-04 10:11:00,36.1,14.7,29.91,SE,140,5.4,6.3,41,0.00,,---,0.00,VWS V14.01,2013-11-04 17:11:00,
2013-11-04 10:16:00,35.4,14.1,29.91,SE,139,0.0,6.3,41,0.00,,---,0.00,VWS V14.01,2013-11-04 17:16:00,
2013-11-04 10:21:00,35.4,14.1,29.91,SSE,155,2.7,6.3,41,0.00,,---,0.00,VWS V14.01,2013-11-04 17:21:00,
2013-11-04 10:26:00,36.1,14.2,29.91,SE,129,2.7,6.3,40,0.00,,---,0.00,VWS V14.01,2013-11-04 17:26:00,
2013-11-04 10:31:00,36.9,14.8,29.91,SE,133,2.7,4.0,40,0.00,,---,0.00,VWS V14.01,2013-11-04 17:31:00,
2013-11-04 10:36:00,36.9,14.8,29.91,SE,137,3.6,7.6,40,0.00,,---,0.00,VWS V14.01,2013-11-04 17:36:00,
2013-11-04 10:41:00,37.4,14.7,29.91,South,177,4.9,7.6,39,0.00,,---,0.00,VWS V14.01,2013-11-04 17:41:00,
2013-11-04 10:46:00,39.2,16.3,29.91,SSE,147,6.3,7.2,39,0.00,,---,0.00,VWS V14.01,2013-11-04 17:46:00,
2013-11-04 10:51:00,39.7,16.2,29.91,SE,128,4.0,7.2,38,0.00,,---,0.00,VWS V14.01,2013-11-04 17:51:00,
2013-11-04 10:56:00,40.6,15.8,29.91,SSE,164,4.0,7.6,36,0.00,,---,0.00,VWS V14.01,2013-11-04 17:56:00,
2013-11-04 11:01:00,41.5,15.3,29.91,SSE,157,2.7,6.3,34,0.00,,---,0.00,VWS V14.01,2013-11-04 18:01:00,
2013-11-04 11:06:00,41.7,14.1,29.91,SE,128,5.4,8.7,32,0.00,,---,0.00,VWS V14.01,2013-11-04 18:06:00,
2013-11-04 11:11:00,40.5,12.9,29.91,SE,128,4.9,8.7,32,0.00,,---,0.00,VWS V14.01,2013-11-04 18:11:00,
2013-11-04 11:16:00,38.8,11.5,29.91,South,176,3.6,5.8,32,0.00,,---,0.00,VWS V14.01,2013-11-04 18:16:00,
2013-11-04 11:21:00,37.6,9.7,29.91,South,170,4.9,6.3,31,0.00,,---,0.00,VWS V14.01,2013-11-04 18:21:00,
2013-11-04 11:26:00,36.9,9.8,29.91,SSE,153,4.0,6.3,32,0.00,,---,0.00,VWS V14.01,2013-11-04 18:26:00,
2013-11-04 11:31:00,36.3,9.3,29.91,South,179,6.3,6.3,32,0.00,,---,0.00,VWS V14.01,2013-11-04 18:31:00,
2013-11-04 11:36:00,35.1,10.8,29.91,SSW,209,3.6,10.1,36,0.00,,---,0.00,VWS V14.01,2013-11-04 18:36:00,
2013-11-04 11:41:00,34.9,11.3,29.93,SSW,199,4.0,10.1,37,0.00,,---,0.00,VWS V14.01,2013-11-04 18:41:00,
2013-11-04 11:46:00,35.1,13.2,29.93,South,175,4.9,6.7,40,0.00,,---,0.00,VWS V14.01,2013-11-04 18:46:00,
2013-11-04 11:51:00,36.3,14.3,29.93,SE,130,3.6,6.7,40,0.00,,---,0.00,VWS V14.01,2013-11-04 18:51:00,
2013-11-04 11:56:00,38.1,15.9,29.93,ESE,115,3.1,6.7,40,0.00,,---,0.00,VWS V14.01,2013-11-04 18:56:00,
2013-11-04 12:01:00,39.4,16.5,29.93,East,84,2.2,4.5,39,0.00,,---,0.00,VWS V14.01,2013-11-04 19:01:00,
2013-11-04 12:06:00,41.7,18.0,29.93,SE,144,2.2,4.5,38,0.00,,---,0.00,VWS V14.01,2013-11-04 19:06:00,
2013-11-04 12:11:00,44.1,18.8,29.91,ENE,57,3.1,4.5,36,0.00,,---,0.00,VWS V14.01,2013-11-04 19:11:00,
2013-11-04 12:16:00,44.4,18.5,29.91,East,98,4.0,5.4,35,0.00,,---,0.00,VWS V14.01,2013-11-04 19:16:00,
2013-11-04 12:21:00,44.4,17.1,29.91,East,90,4.9,5.4,33,0.00,,---,0.00,VWS V14.01,2013-11-04 19:21:00,
2013-11-04 12:26:00,44.2,16.3,29.91,SSE,152,3.6,6.3,32,0.00,,---,0.00,VWS V14.01,2013-11-04 19:26:00,
2013-11-04 12:31:00,44.6,16.6,29.91,ESE,122,3.1,3.1,32,0.00,,---,0.00,VWS V14.01,2013-11-04 19:31:00,
2013-11-04 12:36:00,44.6,15.9,29.91,ESE,114,0.0,6.3,31,0.00,,---,0.00,VWS V14.01,2013-11-04 19:36:00,
2013-11-04 12:41:00,45.5,16.6,29.91,SE,131,2.7,6.3,31,0.00,,---,0.00,VWS V14.01,2013-11-04 19:41:00,
2013-11-04 12:46:00,44.2,14.8,29.91,SE,124,3.6,5.4,30,0.00,,---,0.00,VWS V14.01,2013-11-04 19:46:00,
2013-11-04 12:51:00,43.0,13.7,29.91,North,7,0.0,5.4,30,0.00,,---,0.00,VWS V14.01,2013-11-04 19:51:00,
2013-11-04 12:56:00,42.1,12.9,29.91,SE,133,3.1,5.4,30,0.00,,---,0.00,VWS V14.01,2013-11-04 19:56:00,
2013-11-04 13:01:00,40.5,11.5,29.91,East,82,0.0,4.0,30,0.00,,---,0.00,VWS V14.01,2013-11-04 20:01:00,
2013-11-04 13:06:00,38.8,10.8,29.91,NNE,27,0.0,4.0,31,0.00,,---,0.00,VWS V14.01,2013-11-04 20:06:00,
2013-11-04 13:11:00,37.9,10.0,29.91,North,4,0.0,4.0,31,0.00,,---,0.00,VWS V14.01,2013-11-04 20:11:00,
2013-11-04 13:16:00,37.2,10.1,29.91,North,9,0.0,0.0,32,0.00,,---,0.00,VWS V14.01,2013-11-04 20:16:00,
2013-11-04 13:21:00,36.7,9.6,29.91,North,0,0.0,2.2,32,0.00,,---,0.00,VWS V14.01,2013-11-04 20:21:00,
2013-11-04 13:26:00,36.5,10.1,29.91,North,353,0.0,2.2,33,0.00,,---,0.00,VWS V14.01,2013-11-04 20:26:00,
2013-11-04 13:31:00,36.5,10.1,29.91,North,357,0.0,3.1,33,0.00,,---,0.00,VWS V14.01,2013-11-04 20:31:00,
2013-11-04 13:36:00,36.0,9.7,29.91,North,353,0.0,3.1,33,0.00,,---,0.00,VWS V14.01,2013-11-04 20:36:00,
2013-11-04 13:41:00,37.0,10.6,29.91,North,353,0.0,3.1,33,0.00,,---,0.00,VWS V14.01,2013-11-04 20:41:00,
2013-11-04 13:46:00,38.7,11.4,29.91,NNE,17,0.0,0.0,32,0.00,,---,0.00,VWS V14.01,2013-11-04 20:46:00,
2013-11-04 13:51:00,42.6,14.8,29.91,ENE,59,0.0,0.0,32,0.00,,---,0.00,VWS V14.01,2013-11-04 20:51:00,
2013-11-04 13:56:00,45.0,15.4,29.91,SSW,211,0.0,3.6,30,0.00,,---,0.00,VWS V14.01,2013-11-04 20:56:00,
2013-11-04 14:01:00,44.1,13.9,29.91,North,0,0.0,0.0,29,0.00,,---,0.00,VWS V14.01,2013-11-04 21:01:00,
2013-11-04 14:06:00,44.6,13.5,29.91,SSW,200,2.7,8.3,28,0.00,,---,0.00,VWS V14.01,2013-11-04 21:06:00,
2013-11-04 14:11:00,43.5,12.6,29.91,SSW,209,2.7,8.3,28,0.00,,---,0.00,VWS V14.01,2013-11-04 21:11:00,
2013-11-04 14:16:00,43.7,12.8,29.91,WNW,302,2.7,3.1,28,0.00,,---,0.00,VWS V14.01,2013-11-04 21:16:00,
2013-11-04 14:21:00,43.3,12.4,29.91,NW,304,0.0,4.9,28,0.00,,---,0.00,VWS V14.01,2013-11-04 21:21:00,
2013-11-04 14:26:00,43.9,12.9,29.91,NW,306,5.8,5.8,28,0.00,,---,0.00,VWS V14.01,2013-11-04 21:26:00,
2013-11-04 14:31:00,45.1,14.0,29.91,NW,306,4.9,4.9,28,0.00,,---,0.00,VWS V14.01,2013-11-04 21:31:00,
2013-11-04 14:36:00,44.4,13.4,29.91,WSW,240,5.8,8.1,28,0.00,,---,0.00,VWS V14.01,2013-11-04 21:36:00,
2013-11-04 14:41:00,42.4,12.4,29.91,WNW,288,5.4,8.1,29,0.00,,---,0.00,VWS V14.01,2013-11-04 21:41:00,
2013-11-04 14:46:00,41.9,12.0,29.91,West,279,7.6,7.6,29,0.00,,---,0.00,VWS V14.01,2013-11-04 21:46:00,
2013-11-04 14:51:00,41.5,11.7,29.91,WNW,293,2.7,7.6,29,0.00,,---,0.00,VWS V14.01,2013-11-04 21:51:00,
2013-11-04 14:56:00,42.1,12.1,29.91,NNE,16,3.1,7.6,29,0.00,,---,0.00,VWS V14.01,2013-11-04 21:56:00,
2013-11-04 15:01:00,43.0,12.1,29.91,WNW,284,2.7,4.9,28,0.00,,---,0.00,VWS V14.01,2013-11-04 22:01:00,
2013-11-04 15:06:00,43.5,12.6,29.91,WNW,300,2.7,5.8,28,0.00,,---,0.00,VWS V14.01,2013-11-04 22:06:00,
2013-11-04 15:11:00,43.7,12.8,29.91,WNW,301,3.1,6.3,28,0.00,,---,0.00,VWS V14.01,2013-11-04 22:11:00,
2013-11-04 15:16:00,43.2,12.3,29.91,NW,305,4.0,4.0,28,0.00,,---,0.00,VWS V14.01,2013-11-04 22:16:00,
2013-11-04 15:21:00,40.1,9.6,29.91,WNW,287,4.0,4.0,28,0.00,,---,0.00,VWS V14.01,2013-11-04 22:21:00,
2013-11-04 15:26:00,37.9,8.5,29.93,WNW,302,0.0,4.0,29,0.00,,---,0.00,VWS V14.01,2013-11-04 22:26:00,
2013-11-04 15:31:00,36.9,7.6,29.93,WNW,293,0.0,0.0,29,0.00,,---,0.00,VWS V14.01,2013-11-04 22:31:00,
2013-11-04 15:36:00,37.0,8.5,29.93,WNW,288,2.7,5.4,30,0.00,,---,0.00,VWS V14.01,2013-11-04 22:36:00,
2013-11-04 15:41:00,38.7,9.2,29.93,NW,308,3.6,5.4,29,0.00,,---,0.00,VWS V14.01,2013-11-04 22:41:00,
2013-11-04 15:46:00,38.8,9.3,29.93,WSW,253,2.7,5.4,29,0.00,,---,0.00,VWS V14.01,2013-11-04 22:46:00,
2013-11-04 15:51:00,38.1,8.7,29.93,WNW,283,5.8,5.8,29,0.00,,---,0.00,VWS V14.01,2013-11-04 22:51:00,
2013-11-04 15:56:00,37.2,7.9,29.93,WSW,245,0.0,5.8,29,0.00,,---,0.00,VWS V14.01,2013-11-04 22:56:00,
2013-11-04 16:01:00,36.7,7.4,29.93,SW,235,4.0,4.0,29,0.00,,---,0.00,VWS V14.01,2013-11-04 23:01:00,
2013-11-04 16:06:00,36.3,7.1,29.93,SSW,205,0.0,4.5,29,0.00,,---,0.00,VWS V14.01,2013-11-04 23:06:00,
2013-11-04 16:11:00,36.0,6.8,29.93,SW,236,0.0,4.5,29,0.00,,---,0.00,VWS V14.01,2013-11-04 23:11:00,
2013-11-04 16:16:00,35.8,6.7,29.93,WSW,240,0.0,5.4,29,0.00,,---,0.00,VWS V14.01,2013-11-04 23:16:00,
2013-11-04 16:21:00,35.4,7.1,29.93,NW,317,0.0,5.4,30,0.00,,---,0.00,VWS V14.01,2013-11-04 23:21:00,
2013-11-04 16:26:00,34.5,7.0,29.93,North,353,2.7,5.4,31,0.00,,---,0.00,VWS V14.01,2013-11-04 23:26:00,
2013-11-04 16:31:00,33.6,13.5,29.93,NNW,338,2.7,3.1,43,0.00,,---,0.00,VWS V14.01,2013-11-04 23:31:00,
2013-11-04 16:36:00,33.1,14.1,29.93,North,357,3.1,4.0,45,0.00,,---,0.00,VWS V14.01,2013-11-04 23:36:00,
2013-11-04 16:41:00,33.1,14.6,29.96,NW,319,0.0,4.0,46,0.00,,---,0.00,VWS V14.01,2013-11-04 23:41:00,
2013-11-04 16:46:00,33.1,14.6,29.96,North,357,0.0,3.1,46,0.00,,---,0.00,VWS V14.01,2013-11-04 23:46:00,
2013-11-04 16:51:00,32.9,13.9,29.96,WSW,255,2.7,3.6,45,0.00,,---,0.00,VWS V14.01,2013-11-04 23:51:00,
2013-11-04 16:56:00,32.4,12.4,29.96,WNW,295,4.9,5.4,43,0.00,,---,0.00,VWS V14.01,2013-11-04 23:56:00,
2013-11-04 17:01:00,31.8,11.9,29.96,NNW,336,0.0,0.0,43,0.00,,---,0.00,VWS V14.01,2013-11-05 00:01:00,
2013-11-04 17:06:00,31.5,11.6,29.96,NW,310,2.7,5.8,43,0.00,,---,0.00,VWS V14.01,2013-11-05 00:06:00,
2013-11-04 17:11:00,31.1,11.2,29.96,WNW,284,4.0,6.3,43,0.00,,---,0.00,VWS V14.01,2013-11-05 00:11:00,
2013-11-04 17:16:00,30.9,11.1,29.96,NW,321,3.6,3.6,43,0.00,,---,0.00,VWS V14.01,2013-11-05 00:16:00,
2013-11-04 17:21:00,30.7,10.4,29.96,NW,321,2.7,5.4,42,0.00,,---,0.00,VWS V14.01,2013-11-05 00:21:00,
2013-11-04 17:26:00,31.1,10.2,29.96,NW,315,2.7,6.3,41,0.00,,---,0.00,VWS V14.01,2013-11-05 00:26:00,
2013-11-04 17:31:00,31.5,9.9,29.96,NNW,343,4.0,8.3,40,0.00,,---,0.00,VWS V14.01,2013-11-05 00:31:00,
2013-11-04 17:36:00,31.8,8.5,29.96,NW,308,3.6,8.3,37,0.00,,---,0.00,VWS V14.01,2013-11-05 00:36:00,
2013-11-04 17:41:00,32.2,8.9,29.96,NW,315,0.0,8.3,37,0.00,,---,0.00,VWS V14.01,2013-11-05 00:41:00,
2013-11-04 17:46:00,32.5,7.9,29.96,NNW,328,2.2,2.7,35,0.00,,---,0.00,VWS V14.01,2013-11-05 00:46:00,
2013-11-04 17:51:00,32.5,7.3,29.96,NW,315,2.2,4.0,34,0.00,,---,0.00,VWS V14.01,2013-11-05 00:51:00,
2013-11-04 17:56:00,32.4,7.1,29.96,NW,316,3.1,4.0,34,0.00,,---,0.00,VWS V14.01,2013-11-05 00:56:00,
2013-11-04 18:01:00,32.4,7.1,29.96,NNW,348,3.1,3.1,34,0.00,,---,0.00,VWS V14.01,2013-11-05 01:01:00,
2013-11-04 18:06:00,32.0,7.5,29.96,North,3,0.0,3.1,35,0.00,,---,0.00,VWS V14.01,2013-11-05 01:06:00,
2013-11-04 18:11:00,30.9,7.1,29.99,ENE,65,0.0,3.1,36,0.00,,---,0.00,VWS V14.01,2013-11-05 01:11:00,
2013-11-04 18:16:00,30.2,9.4,29.99,ENE,58,0.0,0.0,41,0.00,,---,0.00,VWS V14.01,2013-11-05 01:16:00,
2013-11-04 18:21:00,29.5,10.8,29.99,ENE,58,0.0,0.0,45,0.00,,---,0.00,VWS V14.01,2013-11-05 01:21:00,
2013-11-04 18:26:00,28.9,10.3,29.99,ENE,58,0.0,0.0,45,0.00,,---,0.00,VWS V14.01,2013-11-05 01:26:00,
2013-11-04 18:31:00,28.8,12.0,29.99,ENE,58,0.0,0.0,49,0.00,,---,0.00,VWS V14.01,2013-11-05 01:31:00,
2013-11-04 18:36:00,28.9,13.5,29.99,ENE,58,0.0,0.0,52,0.00,,---,0.00,VWS V14.01,2013-11-05 01:36:00,
2013-11-04 18:41:00,29.1,13.7,29.99,ENE,58,0.0,0.0,52,0.00,,---,0.00,VWS V14.01,2013-11-05 01:41:00,
2013-11-04 18:46:00,28.9,13.5,29.99,ENE,58,0.0,0.0,52,0.00,,---,0.00,VWS V14.01,2013-11-05 01:46:00,
2013-11-04 18:51:00,29.1,13.7,29.99,ENE,58,0.0,0.0,52,0.00,,---,0.00,VWS V14.01,2013-11-05 01:51:00,
2013-11-04 18:56:00,29.5,14.5,29.99,ENE,57,0.0,0.0,53,0.00,,---,0.00,VWS V14.01,2013-11-05 01:56:00,
2013-11-04 19:01:00,29.5,14.5,29.99,ENE,57,0.0,0.0,53,0.00,,---,0.00,VWS V14.01,2013-11-05 02:01:00,
2013-11-04 19:06:00,29.3,13.9,29.99,ENE,57,0.0,0.0,52,0.00,,---,0.00,VWS V14.01,2013-11-05 02:06:00,
2013-11-04 19:11:00,29.1,13.3,29.99,ENE,57,0.0,0.0,51,0.00,,---,0.00,VWS V14.01,2013-11-05 02:11:00,
2013-11-04 19:16:00,29.1,13.3,29.99,ENE,63,0.0,0.0,51,0.00,,---,0.00,VWS V14.01,2013-11-05 02:16:00,
2013-11-04 19:21:00,29.1,13.3,29.99,ENE,63,0.0,0.0,51,0.00,,---,0.00,VWS V14.01,2013-11-05 02:21:00,
2013-11-04 19:26:00,29.1,13.3,29.99,ENE,63,0.0,0.0,51,0.00,,---,0.00,VWS V14.01,2013-11-05 02:26:00,
2013-11-04 19:31:00,28.9,12.6,29.99,ENE,63,0.0,0.0,50,0.00,,---,0.00,VWS V14.01,2013-11-05 02:31:00,
2013-11-04 19:36:00,28.9,13.1,29.99,ENE,63,0.0,0.0,51,0.00,,---,0.00,VWS V14.01,2013-11-05 02:36:00,
2013-11-04 19:41:00,29.1,13.3,29.99,ENE,63,0.0,0.0,51,0.00,,---,0.00,VWS V14.01,2013-11-05 02:41:00,
2013-11-04 19:46:00,29.1,12.4,29.99,NW,307,6.3,6.3,49,0.00,,---,0.00,VWS V14.01,2013-11-05 02:46:00,
2013-11-04 19:51:00,29.5,12.2,29.99,WNW,284,2.7,6.3,48,0.00,,---,0.00,VWS V14.01,2013-11-05 02:51:00,
2013-11-04 19:56:00,29.5,12.2,30.02,WSW,250,4.0,6.3,48,0.00,,---,0.00,VWS V14.01,2013-11-05 02:56:00,
2013-11-04 20:01:00,29.3,11.6,30.02,SW,232,2.7,4.9,47,0.00,,---,0.00,VWS V14.01,2013-11-05 03:01:00,
2013-11-04 20:06:00,29.5,11.3,30.02,WSW,252,4.9,8.7,46,0.00,,---,0.00,VWS V14.01,2013-11-05 03:06:00,
2013-11-04 20:11:00,29.5,11.3,30.02,SW,227,0.0,8.7,46,0.00,,---,0.00,VWS V14.01,2013-11-05 03:11:00,
2013-11-04 20:16:00,29.5,11.3,30.02,WSW,245,0.0,0.0,46,0.00,,---,0.00,VWS V14.01,2013-11-05 03:16:00,
2013-11-04 20:21:00,29.3,10.6,30.02,South,184,2.7,3.6,45,0.00,,---,0.00,VWS V14.01,2013-11-05 03:21:00,
2013-11-04 20:26:00,29.1,10.4,30.02,SSW,192,3.1,4.9,45,0.00,,---,0.00,VWS V14.01,2013-11-05 03:26:00,
2013-11-04 20:31:00,28.9,10.3,30.02,SSW,192,3.6,4.0,45,0.00,,---,0.00,VWS V14.01,2013-11-05 03:31:00,
2013-11-04 20:36:00,28.8,10.1,30.02,SSW,192,0.0,4.0,45,0.00,,---,0.00,VWS V14.01,2013-11-05 03:36:00,
2013-11-04 20:41:00,28.4,9.8,30.02,SSW,197,0.0,4.0,45,0.00,,---,0.00,VWS V14.01,2013-11-05 03:41:00,
2013-11-04 20:46:00,28.0,9.4,30.02,SSW,209,0.0,0.0,45,0.00,,---,0.00,VWS V14.01,2013-11-05 03:46:00,
2013-11-04 20:51:00,27.9,9.3,30.02,SSW,211,0.0,0.0,45,0.00,,---,0.00,VWS V14.01,2013-11-05 03:51:00,
2013-11-04 20:55:00,27.5,9.0,30.02,SSW,211,0.0,0.0,45,0.00,,---,0.00,VWS V14.01,2013-11-05 03:55:00,
2013-11-04 21:00:00,27.5,9.0,30.02,SSW,211,0.0,0.0,45,0.00,,---,0.00,VWS V14.01,2013-11-05 04:00:00,
2013-11-04 21:05:00,27.5,9.4,30.02,SSW,211,0.0,0.0,46,0.00,,---,0.00,VWS V14.01,2013-11-05 04:05:00,
2013-11-04 21:10:00,27.3,9.3,30.02,SSW,211,0.0,0.0,46,0.00,,---,0.00,VWS V14.01,2013-11-05 04:10:00,
2013-11-04 21:15:00,27.5,9.4,30.02,SSW,211,0.0,0.0,46,0.00,,---,0.00,VWS V14.01,2013-11-05 04:15:00,
2013-11-04 21:20:00,27.5,9.4,30.02,SSW,211,0.0,0.0,46,0.00,,---,0.00,VWS V14.01,2013-11-05 04:20:00,
2013-11-04 21:25:00,27.5,9.4,30.02,SSW,211,0.0,0.0,46,0.00,,---,0.00,VWS V14.01,2013-11-05 04:25:00,
2013-11-04 21:30:00,27.9,9.8,30.02,SSW,192,0.0,0.0,46,0.00,,---,0.00,VWS V14.01,2013-11-05 04:30:00,
2013-11-04 21:35:00,27.9,9.8,30.02,SSW,192,0.0,0.0,46,0.00,,---,0.00,VWS V14.01,2013-11-05 04:35:00,
2013-11-04 21:40:00,27.9,9.8,30.02,SSW,192,0.0,0.0,46,0.00,,---,0.00,VWS V14.01,2013-11-05 04:40:00,
2013-11-04 21:45:00,27.9,9.8,30.02,SSW,192,0.0,0.0,46,0.00,,---,0.00,VWS V14.01,2013-11-05 04:45:00,
2013-11-04 21:50:00,27.9,9.8,30.02,SSW,192,0.0,0.0,46,0.00,,---,0.00,VWS V14.01,2013-11-05 04:50:00,
2013-11-04 21:55:00,27.9,9.8,30.02,SSW,192,0.0,0.0,46,0.00,,---,0.00,VWS V14.01,2013-11-05 04:55:00,
2013-11-04 22:00:00,28.0,9.9,30.02,South,170,0.0,0.0,46,0.00,,---,0.00,VWS V14.01,2013-11-05 05:00:00,
2013-11-04 22:01:00,28.0,9.9,30.02,SE,146,0.0,0.0,46,0.00,,---,0.00,VWS V14.01,2013-11-05 05:01:00,
2013-11-04 22:06:00,27.9,9.8,30.02,ESE,120,0.0,0.0,46,0.00,,---,0.00,VWS V14.01,2013-11-05 05:06:00,
2013-11-04 22:11:00,28.0,9.9,30.02,West,262,0.0,3.1,46,0.00,,---,0.00,VWS V14.01,2013-11-05 05:11:00,
2013-11-04 22:16:00,28.2,10.1,30.02,SE,136,0.0,0.0,46,0.00,,---,0.00,VWS V14.01,2013-11-05 05:16:00,
2013-11-04 22:21:00,28.4,10.3,30.02,SE,136,0.0,0.0,46,0.00,,---,0.00,VWS V14.01,2013-11-05 05:21:00,
2013-11-04 22:26:00,28.4,10.3,30.02,SE,136,0.0,0.0,46,0.00,,---,0.00,VWS V14.01,2013-11-05 05:26:00,
2013-11-04 22:31:00,28.2,10.1,30.02,SE,136,0.0,0.0,46,0.00,,---,0.00,VWS V14.01,2013-11-05 05:31:00,
2013-11-04 22:36:00,28.2,10.1,30.02,SE,136,0.0,0.0,46,0.00,,---,0.00,VWS V14.01,2013-11-05 05:36:00,
2013-11-04 22:41:00,28.2,10.1,30.02,SE,136,0.0,0.0,46,0.00,,---,0.00,VWS V14.01,2013-11-05 05:41:00,
2013-11-04 22:46:00,28.2,10.1,30.02,SSW,209,0.0,0.0,46,0.00,,---,0.00,VWS V14.01,2013-11-05 05:46:00,
2013-11-04 22:51:00,28.2,10.1,30.02,WSW,249,2.7,3.6,46,0.00,,---,0.00,VWS V14.01,2013-11-05 05:51:00,
2013-11-04 22:56:00,28.2,10.1,30.02,South,186,3.6,3.6,46,0.00,,---,0.00,VWS V14.01,2013-11-05 05:56:00,
2013-11-04 23:01:00,28.4,10.3,30.02,SSE,159,2.7,3.1,46,0.00,,---,0.00,VWS V14.01,2013-11-05 06:01:00,
2013-11-04 23:06:00,28.4,10.3,30.02,SSW,199,2.7,3.6,46,0.00,,---,0.00,VWS V14.01,2013-11-05 06:06:00,
2013-11-04 23:11:00,28.2,10.1,30.02,West,277,3.1,4.0,46,0.00,,---,0.00,VWS V14.01,2013-11-05 06:11:00,
2013-11-04 23:16:00,28.4,10.3,30.02,SSE,167,3.6,4.0,46,0.00,,---,0.00,VWS V14.01,2013-11-05 06:16:00,
2013-11-04 23:21:00,28.8,10.1,30.02,SE,128,2.7,4.5,45,0.00,,---,0.00,VWS V14.01,2013-11-05 06:21:00,
2013-11-04 23:26:00,28.8,10.1,30.02,SE,134,0.0,4.5,45,0.00,,---,0.00,VWS V14.01,2013-11-05 06:26:00,
2013-11-04 23:31:00,28.6,9.9,30.02,SE,134,0.0,0.0,45,0.00,,---,0.00,VWS V14.01,2013-11-05 06:31:00,
2013-11-04 23:36:00,28.4,9.8,30.02,SE,134,0.0,0.0,45,0.00,,---,0.00,VWS V14.01,2013-11-05 06:36:00,
2013-11-04 23:41:00,28.0,9.4,30.02,SE,134,0.0,0.0,45,0.00,,---,0.00,VWS V14.01,2013-11-05 06:41:00,
2013-11-04 23:46:00,27.5,9.0,30.02,SE,135,0.0,0.0,45,0.00,,---,0.00,VWS V14.01,2013-11-05 06:46:00,
2013-11-04 23:51:00,27.5,9.0,30.02,SE,134,0.0,0.0,45,0.00,,---,0.00,VWS V14.01,2013-11-05 06:51:00,
2013-11-04 23:56:00,27.7,9.1,30.02,SE,134,0.0,0.0,45,0.00,,---,0.00,VWS V14.01,2013-11-05 06:56:00,